This is the latest recevied weather packets stored in our database for station/object KD7MPG-3. If no packets are shown the sender has not sent any weather packets the latest 10 day(s).
| Time | Temp. | Humidity | Pressure | Rain* | Wind** | Luminosity | Snow |
|---|---|---|---|---|---|---|---|
| 1777601863 | 22.22° C | 56% | 1022.3 hPa | 0 mm | - | - | - |
| 1777601562 | 22.22° C | 56% | 1022.3 hPa | 0 mm | - | - | - |
| 1777601263 | 22.22° C | 55% | 1022.4 hPa | 0 mm | - | - | - |
| 1777600963 | 22.78° C | 55% | 1022.4 hPa | 0 mm | - | - | - |
| 1777600660 | 23.33° C | 54% | 1022.6 hPa | 0 mm | - | - | - |
| 1777600361 | 23.33° C | 53% | 1022.5 hPa | 0 mm | - | - | - |
| 1777600061 | 23.89° C | 52% | 1022.5 hPa | 0 mm | - | - | - |
| 1777599761 | 24.44° C | 52% | 1022.5 hPa | 0 mm | - | - | - |
| 1777599461 | 25° C | 50% | 1022.7 hPa | 0 mm | - | - | - |
| 1777599160 | 25.56° C | 49% | 1022.7 hPa | 0 mm | - | - | - |
| 1777598862 | 26.11° C | 47% | 1022.6 hPa | 0 mm | - | - | - |
| 1777598557 | 26.67° C | 43% | 1022.5 hPa | 0 mm | - | - | - |
| 1777598257 | 26.67° C | 43% | 1022.6 hPa | 0 mm | - | - | - |
| 1777597956 | 26.67° C | 44% | 1022.6 hPa | 0 mm | - | - | - |
| 1777597657 | 26.67° C | 43% | 1022.5 hPa | 0 mm | - | - | - |
| 1777597354 | 26.67° C | 43% | 1022.6 hPa | 0 mm | - | - | - |
| 1777597056 | 27.22° C | 43% | 1022.6 hPa | 0 mm | - | - | - |
| 1777596750 | 27.78° C | 43% | 1022.6 hPa | 0 mm | - | - | - |
| 1777596444 | 27.78° C | 42% | 1022.5 hPa | 0 mm | - | - | - |
| 1777596138 | 28.33° C | 42% | 1022.6 hPa | 0 mm | - | - | - |
| 1777595832 | 28.33° C | 42% | 1022.6 hPa | 0 mm | - | - | - |
| 1777595526 | 27.78° C | 42% | 1022.5 hPa | 0 mm | - | - | - |
| 1777595220 | 27.78° C | 39% | 1022.6 hPa | 0 mm | - | - | - |
| 1777594916 | 27.78° C | 41% | 1022.7 hPa | 0 mm | - | - | - |
| 1777594618 | 27.78° C | 42% | 1022.7 hPa | 0 mm | - | - | - |
* Rain latest hour (hover to see other rain measurements)
** Current wind speed in m/s (hover to see current wind gust speed)